Volver al catálogo

ONEWEB-0146

ActivoComunicacionesPO
NORAD 47292·PAYLOAD·🇬🇧 United Kingdom

Lanzado Dec 18, 2020 desde Vostochny Cosmodrome

Loading…

Próximos Pases (próximas 24 horas)

TLE

ActualizadoSource: CelesTrak SupGP

Época: Sep 14, 2026, 20:16 UTC

1 47292C 20100AL  26257.84463380 -.00001845  00000+0 -51357-2 0  2574
2 47292  87.8980 332.8654 0002248 100.0295 299.3661 13.12440166    15

Sigue ONEWEB-0146 en tiempo real con AllMySat

Download on the App Store